Theta_e
320 320 321 321 321 321 321 321 321 321 322 322 323 323 324 323 321 320 312 319 321 333 327 315 318 317 317 314 315 316 308 306 309 310 314 322 320 323 328 330 330 333 335 328 331
320 320 320 320 321 321 321 321 321 322 322 322 323 323 323 323 319 318 327 334 332 334 313 312 313 315 312 312 313 310 307 308 314 315 317 320 320 320 325 324 325 324 336 337 339
320 319 319 319 320 320 321 321 322 322 323 323 324 323 323 321 318 321 331 334 331 324 318 320 316 314 311 313 311 310 307 312 314 317 319 319 318 321 322 319 323 319 328 337 335
319 319 319 319 318 319 320 321 322 322 323 323 323 323 323 321 310 318 340 335 336 317 319 317 313 310 309 308 312 308 312 313 314 316 318 317 320 317 320 325 328 326 332 334 332
319 319 318 318 318 318 319 320 320 321 321 322 322 323 319 318 317 324 340 334 320 318 319 316 312 311 308 310 311 310 311 313 314 314 318 319 317 317 317 323 326 327 327 328 329
318 318 318 318 318 318 319 319 319 319 320 321 322 321 321 313 323 325 324 320 320 319 317 318 314 316 312 312 310 313 312 312 313 314 315 314 315 316 317 321 324 334 334 330 327
317 317 317 318 318 318 318 317 317 318 319 321 322 319 318 317 323 323 322 320 320 318 314 318 318 315 315 311 315 313 308 310 311 312 312 315 311 311 318 321 330 330 329 331 332
317 316 317 317 317 317 317 317 316 318 321 321 322 320 318 323 325 322 322 320 320 320 320 319 318 315 314 317 313 309 309 303 309 311 312 312 305 315 319 318 328 329 326 326 328
316 315 316 316 317 316 316 315 317 322 321 321 319 319 316 322 317 321 322 318 318 319 319 318 317 314 315 308 306 308 302 304 307 312 311 311 308 317 319 317 326 325 324 323 323
315 314 314 315 316 315 314 314 322 317 319 322 321 316 320 313 317 318 321 319 316 316 314 313 312 309 309 306 300 303 304 306 305 310 310 308 312 319 323 325 326 323 321 320 320
314 314 314 314 315 314 314 321 318 317 322 313 315 314 315 318 319 315 318 316 315 313 307 312 306 304 307 309 308 307 306 305 307 311 309 309 316 319 324 323 324 322 320 319 319
314 314 314 314 314 313 315 315 320 320 311 319 318 316 317 318 312 314 318 311 310 306 310 308 304 308 310 309 306 305 304 304 307 310 309 309 313 318 320 322 323 321 319 317 317
312 313 313 313 312 314 314 318 324 322 311 315 315 313 314 316 312 311 315 313 310 308 308 304 308 311 307 306 304 304 303 304 304 308 309 307 310 314 318 320 319 318 317 317 315
312 312 312 311 313 320 315 321 322 323 306 308 309 312 314 315 309 316 317 314 311 308 309 307 311 307 306 304 306 302 308 306 304 303 298 307 296 311 314 314 315 315 314 313 313
311 312 312 311 313 315 321 323 324 322 297 308 309 319 315 311 312 311 317 313 309 309 308 306 306 306 305 306 308 304 309 307 306 303 303 302 299 307 313 309 310 312 312 313 313
311 311 311 318 316 318 323 323 320 304 297 305 310 308 308 310 310 313 311 315 315 309 310 308 312 309 308 309 308 309 306 306 305 303 296 301 300 303 307 309 310 312 313 313 312
310 310 309 317 318 322 322 317 303 298 311 305 305 308 307 306 308 309 308 308 306 303 303 307 306 309 309 305 308 307 304 295 295 295 294 304 300 306 312 313 312 312 311 312 313
308 307 316 320 323 322 318 309 298 305 306 311 309 307 304 307 307 308 307 305 309 307 304 301 298 306 309 306 303 304 304 296 290 291 295 303 298 304 314 317 317 315 313 311 311
307 321 325 327 323 322 312 301 302 306 310 308 307 303 303 306 306 306 306 305 309 308 303 302 301 309 308 308 306 302 299 305 299 300 295 297 303 308 309 309 310 309 310 309 310
310 317 323 324 324 319 310 302 307 310 312 311 303 305 302 304 304 304 305 309 308 309 311 306 300 307 307 309 308 303 306 297 299 292 290 296 298 300 305 306 309 308 309 308 310
314 317 321 322 324 314 305 307 310 312 312 309 307 306 306 305 305 304 305 308 310 309 309 308 305 304 308 305 303 303 302 302 302 300 293 290 295 307 309 309 308 309 310 310 311
314 311 322 322 309 310 307 310 304 309 311 310 311 310 308 308 306 305 305 308 312 310 305 310 307 300 301 308 307 305 301 301 296 295 298 297 297 310 311 312 311 309 309 310 310
307 311 324 321 306 308 312 310 310 308 308 309 307 310 311 308 304 307 308 311 311 309 309 312 305 297 300 304 307 304 303 303 303 303 297 293 295 309 310 310 310 309 309 309 308
308 306 314 316 314 311 312 309 307 310 309 311 310 311 309 307 310 307 308 309 310 310 312 314 307 301 296 299 303 300 302 302 302 300 297 297 299 305 306 307 308 308 309 308 307
313 308 312 307 310 312 313 311 308 306 310 310 309 309 308 306 306 306 308 308 309 306 307 310 302 304 304 305 303 301 299 299 298 299 296 297 298 305 307 307 308 308 308 306 305
309 306 308 306 308 309 307 308 308 309 309 307 306 309 309 307 308 306 308 308 306 309 308 312 302 303 300 304 303 299 301 300 299 299 298 299 298 308 309 308 306 306 306 304 304
315 314 309 304 305 304 304 307 308 311 311 311 311 309 308 309 314 314 314 314 312 309 309 308 305 303 297 302 300 296 300 301 301 301 301 296 304 308 306 305 306 306 305 304 303
Wind_Speed
14 13 12 12 11 10 10 10 10 10 11 11 11 11 10 11 16 8 11 2 2 4 6 11 14 15 16 17 19 20 15 14 20 20 13 20 9 10 12 18 13 16 12 13 12
16 15 14 13 12 11 10 10 10 11 11 11 11 10 10 10 12 16 6 6 7 4 8 13 13 14 13 18 16 17 14 19 20 17 10 18 3 9 14 13 9 22 22 25 15
18 16 15 14 13 12 11 11 10 11 11 11 11 10 9 12 9 7 7 7 6 3 11 18 14 16 16 15 18 19 15 19 21 18 6 13 13 10 15 7 8 7 7 23 17
19 19 17 15 14 12 12 12 11 11 11 11 10 10 8 8 3 5 7 5 3 7 13 14 12 14 14 17 19 17 17 17 18 15 4 8 13 14 9 9 12 9 24 21 20
18 19 19 17 15 14 13 13 12 12 12 11 10 9 9 9 8 9 8 5 8 10 14 12 10 12 15 16 17 14 17 11 17 16 4 6 15 10 15 7 1 6 10 22 21
19 19 18 17 17 15 14 13 12 13 13 11 9 9 8 14 12 12 10 10 13 14 14 11 11 7 11 15 10 10 8 13 20 9 11 6 12 9 11 16 12 34 28 22 22
20 20 20 19 17 16 15 14 14 14 14 11 7 7 9 11 5 8 6 10 2 8 8 8 10 9 6 8 10 9 8 13 15 6 13 8 5 11 11 8 27 26 23 21 19
21 20 21 20 19 18 16 15 15 15 13 9 6 8 9 4 4 5 9 6 4 5 10 4 7 10 13 12 3 9 12 12 15 13 6 2 10 9 9 7 24 24 20 17 19
22 21 21 21 20 20 17 17 15 10 7 4 7 8 14 5 9 11 8 7 5 5 4 4 9 12 11 11 12 13 10 16 11 12 4 11 3 11 6 6 21 22 19 16 14
23 23 22 21 21 20 19 11 8 7 6 9 11 10 12 11 11 3 6 5 7 7 8 9 9 12 11 11 10 8 8 8 4 13 7 8 13 12 14 15 18 16 16 15 16
24 24 23 22 21 19 15 5 6 7 11 15 6 13 7 6 4 8 9 9 10 7 12 13 9 12 12 7 9 10 14 12 10 12 6 4 13 10 13 5 9 15 15 14 15
25 25 25 24 23 19 7 8 10 10 9 22 20 10 5 1 8 8 9 11 10 12 14 9 11 11 10 10 7 9 10 10 10 7 9 7 10 6 6 6 9 10 14 14 13
25 25 26 26 27 7 11 17 8 9 10 15 14 12 11 10 10 12 10 13 10 13 8 12 1 9 3 7 7 9 10 12 11 8 9 6 13 13 8 8 6 12 13 11 12
27 25 25 30 5 9 15 13 8 2 7 12 11 10 15 12 5 6 10 9 5 9 5 10 8 3 6 9 9 11 7 5 10 11 10 13 14 16 15 12 11 9 11 10 10
27 26 25 11 14 10 8 4 8 2 7 15 14 8 9 13 11 10 6 7 13 7 4 2 3 5 8 3 6 6 8 10 11 12 13 16 12 13 8 14 13 9 8 7 9
29 26 25 2 8 16 13 2 5 7 7 11 11 11 16 14 6 8 7 8 10 8 9 13 7 5 8 8 4 11 9 13 12 13 13 19 13 14 15 16 14 10 12 7 8
31 33 15 10 8 8 8 6 7 10 10 11 14 12 13 13 9 7 11 8 7 7 9 9 7 6 2 11 10 9 9 10 11 12 12 11 7 9 11 15 15 16 12 8 5
35 35 8 9 9 10 5 8 9 12 17 5 11 14 14 12 9 10 6 9 6 7 11 9 7 4 6 4 10 14 9 7 15 13 13 2 4 8 13 11 11 11 10 6 3
33 8 7 8 12 6 8 11 11 16 9 3 6 10 13 15 5 9 8 10 7 4 7 10 6 5 4 6 9 10 11 10 8 11 12 13 15 12 12 10 9 9 9 7 6
11 9 11 5 6 7 8 15 16 5 5 7 10 8 10 13 12 7 9 11 6 2 4 6 7 9 5 4 11 10 10 8 6 9 12 10 11 6 13 14 12 11 9 8 9
5 7 7 7 6 7 10 14 15 9 1 5 10 13 11 12 10 11 9 8 5 8 2 7 5 11 8 5 11 3 6 8 9 6 9 10 4 9 10 15 12 12 12 11 7
6 5 8 6 7 9 11 15 3 7 2 10 8 13 8 9 6 5 10 7 8 2 2 5 4 7 16 7 1 7 10 9 7 9 10 10 5 7 7 12 8 14 7 10 6
8 12 6 6 9 9 14 4 5 8 13 8 10 8 9 8 4 9 11 7 6 3 5 7 3 8 7 12 7 5 2 3 6 5 9 9 3 9 9 9 9 9 10 5 6
7 6 6 7 11 13 12 6 9 10 11 8 8 12 8 8 11 4 2 6 6 9 6 5 4 9 10 14 7 7 7 4 4 3 9 11 3 11 7 6 8 5 7 6 5
6 3 5 5 2 10 8 11 12 7 9 11 9 12 8 7 11 11 6 11 5 5 2 3 8 11 13 17 8 10 12 11 10 9 10 11 10 11 8 6 12 9 5 5 7
8 7 9 13 12 11 6 11 14 13 10 6 10 12 11 11 11 9 7 3 4 9 6 6 6 11 12 12 15 9 12 11 11 9 11 10 5 14 11 8 5 4 8 7 9
10 11 7 10 11 9 11 13 13 14 9 5 6 11 15 7 9 10 8 5 7 2 8 8 6 7 9 14 8 7 8 7 10 1 3 6 8 7 3 4 8 9 7 8 9
Wind_Direction
358 352 345 338 332 324 316 309 304 300 296 296 298 298 302 306 295 225 252 225 220 33 328 268 247 234 241 249 256 258 259 270 274 274 2 20 323 48 61 109 72 306 117 155 131
2 356 350 342 335 327 318 308 301 298 295 294 295 298 306 318 285 260 161 132 118 51 245 249 246 227 238 235 243 241 251 257 268 298 339 158 288 321 63 33 2 25 125 123 116
2 358 352 345 336 327 319 310 302 295 291 290 292 297 302 306 272 189 162 176 128 259 259 273 276 276 239 243 234 238 240 262 279 319 319 327 331 345 106 66 114 178 179 98 94
359 356 352 346 338 329 319 310 303 297 292 289 291 297 297 261 312 91 176 183 170 266 271 261 245 251 249 248 242 249 240 258 275 296 324 295 307 303 294 155 178 191 103 109 100
354 352 349 343 337 329 318 308 300 295 292 288 291 302 287 228 240 135 142 170 219 230 252 247 242 241 248 245 253 244 255 263 276 275 260 232 278 328 310 293 20 91 61 83 102
349 347 344 340 335 327 317 306 298 292 286 284 291 300 244 262 104 142 160 177 238 213 244 253 255 312 301 284 278 256 273 262 270 271 276 234 260 295 285 308 92 62 59 89 84
345 343 341 337 333 327 316 307 300 291 282 275 282 278 264 274 145 144 185 233 261 269 251 261 329 284 283 272 258 278 283 270 260 238 245 293 287 266 276 51 81 82 68 65 64
341 339 338 334 331 327 317 308 301 291 277 260 263 268 264 95 288 192 200 223 220 238 297 359 263 286 279 302 275 252 245 258 222 205 231 146 270 58 19 345 102 97 84 69 59
337 337 336 332 328 325 316 309 294 296 249 235 241 225 261 120 224 221 216 243 170 208 248 300 259 257 259 248 237 214 247 236 134 147 200 175 173 61 8 314 94 83 84 77 65
336 335 334 330 327 323 314 286 314 293 216 228 257 267 249 209 194 195 222 271 205 213 229 228 237 242 220 238 249 306 236 215 258 156 177 211 116 66 6 62 82 85 82 76 77
334 332 332 328 325 324 318 226 215 202 227 234 227 238 139 97 121 211 201 215 244 225 247 205 238 235 243 228 335 338 314 327 156 122 170 115 77 52 4 51 89 95 94 87 83
332 331 330 327 322 320 268 253 322 325 283 220 250 258 321 225 201 177 173 219 203 240 212 251 231 261 17 348 325 288 278 280 297 140 169 183 136 128 106 15 53 98 100 101 96
330 330 330 326 319 277 240 255 339 309 284 268 208 224 218 222 219 167 209 214 242 238 222 260 353 47 351 263 248 256 269 270 260 296 189 201 178 169 140 119 82 64 73 79 81
327 329 330 329 288 260 216 241 254 331 272 173 190 212 187 221 218 127 205 283 245 271 170 256 63 17 240 250 252 268 333 272 315 297 267 222 251 170 150 152 122 113 76 64 75
326 327 324 325 311 280 59 252 347 224 275 131 172 169 183 210 133 186 239 243 274 276 248 52 131 215 263 18 39 338 358 310 295 286 276 255 249 59 147 142 131 126 121 125 85
324 323 329 240 209 260 292 226 237 233 255 168 142 180 192 223 194 126 195 252 308 312 273 284 48 324 337 5 303 315 300 284 270 259 256 253 276 165 181 165 148 165 139 110 73
323 315 310 298 256 223 253 232 221 249 124 160 178 194 211 200 190 162 197 200 250 235 226 216 212 177 345 286 258 220 257 265 260 238 248 276 253 98 149 147 169 160 139 119 113
323 312 243 235 278 256 263 233 248 237 243 99 195 186 208 192 205 189 239 240 163 270 294 262 177 161 112 309 326 321 321 318 305 306 334 207 102 117 93 141 138 126 123 135 172
316 297 232 213 234 255 239 225 216 259 347 154 188 203 209 225 211 169 215 252 85 90 342 322 117 157 181 353 321 305 273 334 322 288 279 284 88 82 114 119 125 141 167 164 160
316 289 252 112 197 225 236 246 257 336 340 334 283 220 231 212 172 250 220 219 133 135 24 339 311 323 132 258 259 244 304 316 279 279 283 312 104 130 163 159 159 158 169 166 187
261 250 103 176 180 230 232 231 234 256 284 269 274 275 242 248 230 203 222 115 155 138 272 291 307 295 289 330 348 208 273 322 316 304 301 298 61 38 168 152 161 161 161 163 66
299 272 120 186 210 231 236 244 310 317 173 248 280 296 293 270 275 240 67 63 45 36 218 55 345 309 306 308 157 295 290 305 305 304 303 311 41 40 92 115 135 97 109 82 60
298 297 145 207 237 246 227 218 248 250 244 232 241 249 280 279 299 279 101 98 85 353 47 352 220 272 296 300 100 303 17 19 282 311 288 292 293 75 83 86 73 104 93 95 68
277 275 177 198 260 293 301 218 233 196 272 293 269 250 223 249 250 263 180 90 84 70 36 353 285 267 274 290 314 254 283 248 241 283 284 291 337 150 127 141 139 155 94 41 22
244 332 21 289 320 290 265 301 302 215 191 251 245 265 241 239 260 219 187 135 134 116 170 254 257 265 274 271 284 287 283 290 284 271 269 285 314 107 149 108 66 74 80 27 9
302 350 353 304 296 298 268 261 274 274 279 210 225 261 240 243 239 257 297 125 230 158 206 184 274 269 269 296 278 241 277 281 272 287 294 299 284 72 67 70 63 32 33 10 18
8 337 298 298 288 253 255 255 239 269 257 244 301 258 259 254 78 56 36 30 0 331 168 220 247 275 276 290 295 285 296 302 281 237 324 303 64 108 135 58 43 39 29 24 32